Weather History for PADK - March, 2013

Change the Weather History Date:

Saturday, March 16, 2013

  Actual Average Record
Temperature  
Mean Temperature 34 °F -  
Max Temperature 41 °F 38 °F 46 °F (1967)
Min Temperature 26 °F 30 °F 18 °F (1961)
Degree Days  
Heating Degree Days 32    
Moisture  
Dew Point 25 °F    
Average Humidity 69    
Maximum Humidity 93    
Minimum Humidity 52    
Precipitation  
Precipitation 0.12 in - - ()
Sea Level Pressure  
Sea Level Pressure 30.08 in    
Wind  
Wind Speed 6 mph (SW)    
Max Wind Speed 21 mph    
Max Gust Speed 26 mph    
Visibility 10 miles    
Events      
Averages and records for this station are not official NWS values.
T = Trace of Precipitation, MM = Missing Value Source: NWS Daily Summary

Daily Weather History Graph

Daily Weather History Graph

Search for Another Location

Airport or City:

Trip Planner

Search our weather history database for the weather conditions in past years. The results will help you decide how hot, cold, wet, or windy it might be!

Date:

Astronomy

Mar. 16, 2013 Rise Set
Actual Time 8:57 AM HDT 8:53 PM HDT
Civil Twilight 8:23 AM HDT 9:27 PM HDT
Nautical Twilight 7:44 AM HDT 10:06 PM HDT
Astronomical Twilight 7:03 AM HDT 10:47 PM HDT
Moon 10:59 AM HDT (3/16) 1:56 AM HDT (3/16)
Length of Visible Light 13h 03m
Length of Day
11h 56m
Waxing Crescent, 24% of the Moon is Illuminated
Mar 16
Waxing Crescent
Mar 19
First Quarter
Mar 27
Full
Apr 2
Last Quarter
Apr 10
New

Hourly Weather History & Observations

Time (HDT) Temp. Windchill Dew Point Humidity Pressure Visibility Wind Dir Wind Speed Gust Speed Precip Events Conditions
12:16 AM 28.4 °F - 24.8 °F 86% 29.97 in 10.0 mi Calm Calm - N/A   Clear
12:36 AM 28.4 °F - 24.8 °F 86% 29.97 in 10.0 mi Calm Calm - N/A   Clear
12:56 AM 28.4 °F - 24.8 °F 86% 29.97 in 10.0 mi Calm Calm - N/A   Clear
1:16 AM 26.6 °F - 24.8 °F 93% 29.97 in 10.0 mi Calm Calm - N/A   Scattered Clouds
1:36 AM 28.4 °F - 24.8 °F 86% 29.98 in 10.0 mi Calm Calm - N/A   Mostly Cloudy
1:56 AM 28.4 °F - 26.6 °F 93% 29.98 in 10.0 mi Calm Calm - N/A   Overcast
2:16 AM 30.2 °F 26.7 °F 24.8 °F 80% 29.98 in 10.0 mi South 3.5 mph - 0.02 in   Overcast
2:36 AM 33.8 °F - 26.6 °F 75% 29.98 in 10.0 mi Calm Calm - 0.04 in   Mostly Cloudy
2:56 AM 32.0 °F - 24.8 °F 75% 29.99 in 10.0 mi Calm Calm - 0.06 in   Overcast
3:16 AM 30.2 °F - 24.8 °F 80% 29.99 in 10.0 mi Calm Calm - N/A   Mostly Cloudy
3:36 AM 28.4 °F - 24.8 °F 86% 30.00 in 10.0 mi Calm Calm - 0.02 in   Overcast
3:56 AM 28.4 °F - 21.2 °F 74% 30.00 in 10.0 mi Calm Calm - 0.02 in   Mostly Cloudy
4:16 AM 28.4 °F - 23.0 °F 80% 30.00 in 10.0 mi Calm Calm - N/A   Partly Cloudy
4:36 AM 28.4 °F - 24.8 °F 86% 30.00 in 10.0 mi Calm Calm - N/A   Mostly Cloudy
4:56 AM 28.4 °F - 24.8 °F 86% 30.01 in 10.0 mi Calm Calm - N/A   Overcast
5:16 AM 30.2 °F - 26.6 °F 86% 30.01 in 10.0 mi Calm Calm - N/A   Overcast
5:36 AM 32.0 °F - 24.8 °F 75% 30.02 in 10.0 mi Calm Calm - N/A   Overcast
5:56 AM 32.0 °F 26.4 °F 23.0 °F 69% 30.02 in 10.0 mi SSW 5.8 mph - 0.04 in   Overcast
6:16 AM 33.8 °F - 24.8 °F 70% 30.03 in 10.0 mi Calm Calm - N/A   Overcast
6:36 AM 33.8 °F - 24.8 °F 70% 30.04 in 10.0 mi Calm Calm - N/A   Overcast
6:56 AM 33.8 °F 25.8 °F 24.8 °F 70% 30.04 in 10.0 mi SW 10.4 mph - N/A   Overcast
7:16 AM 33.8 °F 27.0 °F 24.8 °F 70% 30.05 in 10.0 mi SW 8.1 mph - N/A   Overcast
7:36 AM 33.8 °F 24.8 °F 24.8 °F 70% 30.05 in 10.0 mi SW 12.7 mph - N/A   Overcast
7:56 AM 33.8 °F 25.3 °F 23.0 °F 65% 30.05 in 10.0 mi SW 11.5 mph - N/A   Overcast
8:16 AM 33.8 °F 24.8 °F 23.0 °F 65% 30.06 in 10.0 mi SW 12.7 mph - N/A   Overcast
8:36 AM 33.8 °F 24.3 °F 24.8 °F 70% 30.06 in 10.0 mi SSW 13.8 mph - N/A   Overcast
8:56 AM 33.8 °F 26.4 °F 24.8 °F 70% 30.06 in 10.0 mi SSW 9.2 mph - N/A   Overcast
9:16 AM 35.6 °F 25.5 °F 24.8 °F 65% 30.07 in 10.0 mi SW 17.3 mph - N/A   Overcast
9:36 AM 35.6 °F 26.2 °F 24.8 °F 65% 30.07 in 10.0 mi SW 15.0 mph - N/A   Overcast
9:56 AM 35.6 °F 27.5 °F 24.8 °F 65% 30.08 in 10.0 mi SW 11.5 mph - N/A   Overcast
10:16 AM 35.6 °F 25.9 °F 24.8 °F 65% 30.08 in 10.0 mi SW 16.1 mph - N/A   Overcast
10:36 AM 35.6 °F 26.2 °F 24.8 °F 65% 30.09 in 10.0 mi SW 15.0 mph - N/A   Overcast
10:56 AM 35.6 °F 25.9 °F 24.8 °F 65% 30.08 in 10.0 mi SW 16.1 mph - N/A   Mostly Cloudy
11:16 AM 37.4 °F 28.9 °F 24.8 °F 60% 30.09 in 10.0 mi SW 13.8 mph - N/A   Mostly Cloudy
11:36 AM 37.4 °F 27.5 °F 23.0 °F 56% 30.09 in 10.0 mi SW 18.4 mph 26.5 mph N/A   Overcast
11:56 AM 37.4 °F 28.2 °F 23.0 °F 56% 30.09 in 10.0 mi SW 16.1 mph 21.9 mph N/A   Overcast
12:16 PM 37.4 °F 27.5 °F 23.0 °F 56% 30.10 in 10.0 mi SW 18.4 mph 21.9 mph N/A   Overcast
12:36 PM 37.4 °F 29.3 °F 23.0 °F 56% 30.11 in 10.0 mi SW 12.7 mph - N/A   Overcast
12:56 PM 37.4 °F 28.5 °F 24.8 °F 60% 30.11 in 10.0 mi SW 15.0 mph 20.7 mph N/A   Overcast
1:16 PM 37.4 °F 28.2 °F 26.6 °F 65% 30.11 in 10.0 mi SW 16.1 mph 20.7 mph N/A   Overcast
1:36 PM 39.2 °F 30.8 °F 26.6 °F 61% 30.11 in 10.0 mi SW 15.0 mph - N/A   Overcast
1:56 PM 39.2 °F 31.2 °F 24.8 °F 56% 30.11 in 10.0 mi WSW 13.8 mph - N/A   Overcast
2:16 PM 39.2 °F 30.2 °F 23.0 °F 52% 30.12 in 10.0 mi SW 17.3 mph - N/A   Overcast
2:36 PM 39.2 °F 31.2 °F 23.0 °F 52% 30.12 in 10.0 mi WSW 13.8 mph - N/A   Overcast
2:56 PM 39.2 °F 30.2 °F 24.8 °F 56% 30.12 in 10.0 mi SW 17.3 mph - N/A   Overcast
3:16 PM 39.2 °F 29.6 °F 24.8 °F 56% 30.11 in 10.0 mi SW 19.6 mph 25.3 mph N/A   Overcast
3:36 PM 39.2 °F 29.8 °F 24.8 °F 56% 30.12 in 10.0 mi SW 18.4 mph - N/A   Overcast
3:56 PM 39.2 °F 29.8 °F 26.6 °F 61% 30.12 in 10.0 mi SW 18.4 mph 21.9 mph N/A   Mostly Cloudy
4:16 PM 39.2 °F 30.2 °F 26.6 °F 61% 30.12 in 10.0 mi WSW 17.3 mph - N/A   Mostly Cloudy
4:36 PM 41.0 °F 32.8 °F 24.8 °F 53% 30.12 in 10.0 mi SW 16.1 mph - N/A   Overcast
4:56 PM 41.0 °F 33.5 °F 26.6 °F 57% 30.12 in 10.0 mi SW 13.8 mph 21.9 mph N/A   Overcast
5:16 PM 39.2 °F 29.3 °F 24.8 °F 56% 30.12 in 10.0 mi SW 20.7 mph 24.2 mph N/A   Overcast
5:36 PM 39.2 °F 30.5 °F 24.8 °F 56% 30.13 in 10.0 mi WSW 16.1 mph - N/A   Overcast
5:56 PM 39.2 °F 30.2 °F 26.6 °F 61% 30.13 in 10.0 mi SW 17.3 mph - N/A   Overcast
6:16 PM 39.2 °F 30.8 °F 26.6 °F 61% 30.14 in 10.0 mi SW 15.0 mph - N/A   Overcast
6:36 PM 39.2 °F 31.6 °F 24.8 °F 56% 30.14 in 10.0 mi SW 12.7 mph - N/A   Overcast
6:56 PM 37.4 °F 29.8 °F 23.0 °F 56% 30.14 in 10.0 mi SW 11.5 mph - N/A   Overcast
7:16 PM 37.4 °F 28.5 °F 24.8 °F 60% 30.14 in 10.0 mi WSW 15.0 mph - N/A   Overcast
7:36 PM 37.4 °F 28.5 °F 26.6 °F 65% 30.14 in 10.0 mi SW 15.0 mph - N/A   Overcast
7:56 PM 37.4 °F 29.3 °F 26.6 °F 65% 30.15 in 10.0 mi SW 12.7 mph - N/A   Scattered Clouds
8:16 PM 37.4 °F 29.8 °F 26.6 °F 65% 30.15 in 10.0 mi SW 11.5 mph - N/A   Clear
8:36 PM 35.6 °F 29.9 °F 26.6 °F 70% 30.15 in 10.0 mi WSW 6.9 mph - N/A   Scattered Clouds
8:56 PM 32.0 °F 24.2 °F 24.8 °F 75% 30.16 in 10.0 mi WSW 9.2 mph - N/A   Partly Cloudy
9:16 PM 32.0 °F 24.8 °F 24.8 °F 75% 30.16 in 10.0 mi WSW 8.1 mph - N/A   Clear
9:36 PM 30.2 °F 25.4 °F 24.8 °F 80% 30.17 in 10.0 mi WSW 4.6 mph - N/A   Clear
9:56 PM 30.2 °F 25.4 °F 23.0 °F 75% 30.18 in 10.0 mi WSW 4.6 mph - N/A   Clear
10:16 PM 30.2 °F 25.4 °F 24.8 °F 80% 30.18 in 10.0 mi SW 4.6 mph - N/A   Clear
10:36 PM 28.4 °F 24.6 °F 23.0 °F 80% 30.18 in 10.0 mi WSW 3.5 mph - N/A   Clear
10:56 PM 30.2 °F 25.4 °F 24.8 °F 80% 30.18 in 10.0 mi WSW 4.6 mph - 0.01 in   Mostly Cloudy
11:16 PM 30.2 °F 26.7 °F 24.8 °F 80% 30.19 in 10.0 mi SW 3.5 mph - 0.01 in   Mostly Cloudy
11:36 PM 30.2 °F 25.4 °F 24.8 °F 80% 30.18 in 10.0 mi SW 4.6 mph - 0.03 in   Partly Cloudy
11:56 PM 28.4 °F 23.3 °F 23.0 °F 80% 30.18 in 10.0 mi SW 4.6 mph - 0.03 in   Clear